Time,TemperatureF,DewpointF,PressureIn,WindDirection,WindDirectionDegrees,WindSpeedMPH,WindSpeedGustMPH,Humidity,HourlyPrecipIn,Conditions,Clouds,dailyrainin,SoftwareType,DateUTC
2013-07-09 00:02:00,77.2,70.6,29.80,SW,220,0.0,0.0,80,0.00,,FEW037,0.13,VWS V14.01,2013-07-09 04:02:00,
2013-07-09 00:07:00,77.0,70.4,29.80,SW,222,0.0,0.0,80,0.00,,FEW037,0.00,VWS V14.01,2013-07-09 04:07:00,
2013-07-09 00:13:00,77.0,70.4,29.80,SW,223,0.0,0.0,80,0.00,,FEW037,0.00,VWS V14.01,2013-07-09 04:13:00,
2013-07-09 00:22:00,76.8,70.5,29.81,SW,227,0.0,0.0,81,0.00,,BKN060,0.00,VWS V14.01,2013-07-09 04:22:00,
2013-07-09 00:27:00,76.7,70.4,29.81,SW,227,0.0,0.0,81,0.00,,BKN060,0.00,VWS V14.01,2013-07-09 04:27:00,
2013-07-09 00:32:00,76.7,70.8,29.81,SW,227,0.0,0.0,82,0.00,,BKN060,0.00,VWS V14.01,2013-07-09 04:32:00,
2013-07-09 00:37:00,76.7,70.8,29.81,SW,227,0.0,0.0,82,0.00,,BKN060,0.00,VWS V14.01,2013-07-09 04:37:00,
2013-07-09 00:42:00,76.5,70.6,29.81,SW,224,0.0,0.0,82,0.00,,BKN060,0.00,VWS V14.01,2013-07-09 04:42:00,
2013-07-09 00:47:00,76.7,70.8,29.81,SW,226,0.0,0.0,82,0.00,,BKN060,0.00,VWS V14.01,2013-07-09 04:47:00,
2013-07-09 00:52:00,76.7,70.8,29.81,SW,226,0.0,0.0,82,0.00,,BKN060,0.00,VWS V14.01,2013-07-09 04:52:00,
2013-07-09 00:57:00,76.7,70.8,29.81,SW,226,0.0,0.0,82,0.00,,BKN060,0.00,VWS V14.01,2013-07-09 04:57:00,
2013-07-09 01:02:00,76.8,70.9,29.82,SW,220,0.0,0.0,82,0.00,,BKN060,0.00,VWS V14.01,2013-07-09 05:02:00,
2013-07-09 01:12:00,76.7,70.8,29.82,SSW,213,0.0,0.0,82,0.00,,BKN060,0.00,VWS V14.01,2013-07-09 05:12:00,
2013-07-09 01:17:00,76.7,70.8,29.81,SW,219,0.0,0.0,82,0.00,,BKN060,0.00,VWS V14.01,2013-07-09 05:17:00,
2013-07-09 01:22:00,76.8,70.9,29.81,SW,227,0.0,0.0,82,0.00,,FEW110,0.00,VWS V14.01,2013-07-09 05:22:00,
2013-07-09 01:27:00,76.7,71.2,29.81,SW,222,0.0,0.0,83,0.00,,FEW110,0.00,VWS V14.01,2013-07-09 05:27:00,
2013-07-09 01:32:00,76.7,71.2,29.80,SSW,206,0.0,0.0,83,0.00,,FEW110,0.00,VWS V14.01,2013-07-09 05:32:00,
2013-07-09 01:37:00,76.7,71.2,29.80,SW,234,0.0,0.0,83,0.00,,FEW110,0.00,VWS V14.01,2013-07-09 05:37:00,
2013-07-09 01:42:00,76.7,71.2,29.80,SW,232,0.0,0.0,83,0.00,,FEW110,0.00,VWS V14.01,2013-07-09 05:42:00,
2013-07-09 01:47:00,76.7,71.2,29.80,SSW,195,0.0,0.0,83,0.00,,FEW110,0.00,VWS V14.01,2013-07-09 05:47:00,
2013-07-09 01:52:00,76.5,71.0,29.80,SSW,212,0.0,0.0,83,0.00,,FEW110,0.00,VWS V14.01,2013-07-09 05:52:00,
2013-07-09 01:57:00,76.5,71.0,29.80,SW,224,0.0,0.0,83,0.00,,FEW110,0.00,VWS V14.01,2013-07-09 05:57:00,
2013-07-09 02:07:00,76.5,71.0,29.80,SW,230,0.0,0.0,83,0.00,,FEW110,0.00,VWS V14.01,2013-07-09 06:07:00,
2013-07-09 02:12:00,76.3,70.8,29.80,SW,216,0.0,0.0,83,0.00,,FEW110,0.00,VWS V14.01,2013-07-09 06:12:00,
2013-07-09 02:17:00,76.3,71.1,29.80,SW,222,0.0,0.0,84,0.00,,FEW110,0.00,VWS V14.01,2013-07-09 06:17:00,
2013-07-09 02:22:00,76.1,70.9,29.80,SW,232,0.0,0.0,84,0.00,,FEW120,0.00,VWS V14.01,2013-07-09 06:22:00,
2013-07-09 02:27:00,76.0,70.8,29.80,SW,217,0.0,0.0,84,0.00,,FEW120,0.00,VWS V14.01,2013-07-09 06:27:00,
2013-07-09 02:32:00,76.0,70.8,29.80,SW,222,0.0,0.0,84,0.00,,FEW120,0.00,VWS V14.01,2013-07-09 06:32:00,
2013-07-09 02:37:00,76.0,70.8,29.80,WSW,257,0.0,0.0,84,0.00,,FEW120,0.00,VWS V14.01,2013-07-09 06:37:00,
2013-07-09 02:47:00,75.8,70.6,29.80,SW,232,0.0,0.0,84,0.00,,FEW120,0.00,VWS V14.01,2013-07-09 06:47:00,
2013-07-09 02:52:00,75.8,70.6,29.80,SW,220,0.0,0.0,84,0.00,,FEW120,0.00,VWS V14.01,2013-07-09 06:52:00,
2013-07-09 02:57:00,75.8,70.6,29.80,SSW,209,0.0,0.0,84,0.00,,FEW120,0.00,VWS V14.01,2013-07-09 06:57:00,
2013-07-09 03:07:00,75.8,70.6,29.80,SSW,200,0.0,0.0,84,0.00,,FEW120,0.00,VWS V14.01,2013-07-09 07:07:00,
2013-07-09 03:12:00,75.8,70.6,29.80,SW,236,0.0,0.0,84,0.00,,FEW120,0.00,VWS V14.01,2013-07-09 07:12:00,
2013-07-09 03:17:00,75.8,70.6,29.80,SW,229,0.0,0.0,84,0.00,,FEW120,0.00,VWS V14.01,2013-07-09 07:17:00,
2013-07-09 03:27:00,75.6,70.4,29.80,SSW,213,0.0,0.0,84,0.00,,CLR,0.00,VWS V14.01,2013-07-09 07:27:00,
2013-07-09 03:32:00,75.4,70.6,29.80,SSW,202,0.0,0.0,85,0.00,,CLR,0.00,VWS V14.01,2013-07-09 07:32:00,
2013-07-09 03:37:00,75.4,70.6,29.80,SW,232,0.0,0.0,85,0.00,,CLR,0.00,VWS V14.01,2013-07-09 07:37:00,
2013-07-09 03:42:00,75.3,70.5,29.80,SW,224,0.0,0.0,85,0.00,,CLR,0.00,VWS V14.01,2013-07-09 07:42:00,
2013-07-09 03:47:00,75.1,70.6,29.81,SW,220,0.0,0.0,86,0.00,,CLR,0.00,VWS V14.01,2013-07-09 07:47:00,
2013-07-09 03:57:00,75.1,70.6,29.81,SW,222,0.0,0.0,86,0.00,,CLR,0.00,VWS V14.01,2013-07-09 07:57:00,
2013-07-09 04:02:00,75.1,70.6,29.81,SSW,206,0.0,0.0,86,0.00,,CLR,0.00,VWS V14.01,2013-07-09 08:02:00,
2013-07-09 04:07:00,74.9,70.4,29.81,SW,229,0.0,0.0,86,0.00,,CLR,0.00,VWS V14.01,2013-07-09 08:07:00,
2013-07-09 04:12:00,74.9,70.4,29.81,SW,229,0.0,0.0,86,0.00,,CLR,0.00,VWS V14.01,2013-07-09 08:12:00,
2013-07-09 04:17:00,74.9,70.4,29.80,SW,233,0.0,0.0,86,0.00,,CLR,0.00,VWS V14.01,2013-07-09 08:17:00,
2013-07-09 04:22:00,74.7,70.6,29.80,SW,234,0.0,0.0,87,0.00,,CLR,0.00,VWS V14.01,2013-07-09 08:22:00,
2013-07-09 04:32:00,74.6,70.5,29.80,SW,227,0.0,0.0,87,0.00,,CLR,0.00,VWS V14.01,2013-07-09 08:32:00,
2013-07-09 04:37:00,74.6,70.5,29.80,SW,220,0.0,0.0,87,0.00,,CLR,0.00,VWS V14.01,2013-07-09 08:37:00,
2013-07-09 04:42:00,74.6,70.8,29.80,SW,222,0.0,0.0,88,0.00,,CLR,0.00,VWS V14.01,2013-07-09 08:42:00,
2013-07-09 04:47:00,74.4,70.6,29.80,SSW,212,0.0,0.0,88,0.00,,CLR,0.00,VWS V14.01,2013-07-09 08:47:00,
2013-07-09 04:57:00,74.4,70.6,29.80,SSW,212,0.0,0.0,88,0.00,,CLR,0.00,VWS V14.01,2013-07-09 08:57:00,
2013-07-09 05:02:00,74.2,70.4,29.80,SSW,213,0.0,0.0,88,0.00,,CLR,0.00,VWS V14.01,2013-07-09 09:02:00,
2013-07-09 05:12:00,74.0,70.2,29.80,SW,230,0.0,0.0,88,0.00,,CLR,0.00,VWS V14.01,2013-07-09 09:12:00,
2013-07-09 05:17:00,74.0,70.6,29.80,SW,229,0.0,0.0,89,0.00,,CLR,0.00,VWS V14.01,2013-07-09 09:17:00,
2013-07-09 05:22:00,73.9,70.5,29.80,SW,229,0.0,0.0,89,0.00,,,0.00,VWS V14.01,2013-07-09 09:22:00,
2013-07-09 05:32:00,73.7,70.3,29.80,SW,232,0.0,0.0,89,0.00,,,0.00,VWS V14.01,2013-07-09 09:32:00,
2013-07-09 05:37:00,73.7,70.3,29.80,SSW,209,0.0,0.0,89,0.00,,,0.00,VWS V14.01,2013-07-09 09:37:00,
2013-07-09 05:42:00,73.5,70.1,29.80,SSW,213,0.0,0.0,89,0.00,,,0.00,VWS V14.01,2013-07-09 09:42:00,
2013-07-09 05:52:00,73.5,70.1,29.80,SW,215,0.0,0.0,89,0.00,,,0.00,VWS V14.01,2013-07-09 09:52:00,
2013-07-09 05:57:00,73.5,70.1,29.80,SW,215,0.0,0.0,89,0.00,,,0.00,VWS V14.01,2013-07-09 09:57:00,
2013-07-09 06:02:00,73.5,70.4,29.80,SW,215,0.0,0.0,90,0.00,,,0.00,VWS V14.01,2013-07-09 10:02:00,
2013-07-09 06:12:00,73.5,70.1,29.80,SW,215,0.0,0.0,89,0.00,,,0.00,VWS V14.01,2013-07-09 10:12:00,
2013-07-09 06:17:00,73.5,70.1,29.80,SW,215,0.0,0.0,89,0.00,,,0.00,VWS V14.01,2013-07-09 10:17:00,
2013-07-09 06:22:00,73.3,69.9,29.80,SW,215,0.0,0.0,89,0.00,,,0.00,VWS V14.01,2013-07-09 10:22:00,
2013-07-09 06:32:00,73.2,70.1,29.81,SW,215,0.0,0.0,90,0.00,,,0.00,VWS V14.01,2013-07-09 10:32:00,
2013-07-09 06:37:00,73.2,70.1,29.81,SW,215,0.0,0.0,90,0.00,,,0.00,VWS V14.01,2013-07-09 10:37:00,
2013-07-09 06:42:00,73.2,70.1,29.81,SW,215,0.0,0.0,90,0.00,,,0.00,VWS V14.01,2013-07-09 10:42:00,
2013-07-09 06:47:00,73.2,70.1,29.80,SW,215,0.0,0.0,90,0.00,,,0.00,VWS V14.01,2013-07-09 10:47:00,
2013-07-09 06:57:00,73.2,70.1,29.80,SW,215,0.0,0.0,90,0.00,,,0.00,VWS V14.01,2013-07-09 10:57:00,
2013-07-09 07:02:00,73.3,70.2,29.80,SW,215,0.0,0.0,90,0.00,,,0.00,VWS V14.01,2013-07-09 11:02:00,
2013-07-09 07:07:00,73.3,70.2,29.80,SW,215,0.0,0.0,90,0.00,,,0.00,VWS V14.01,2013-07-09 11:07:00,
2013-07-09 07:12:00,73.5,70.4,29.80,SW,215,0.0,0.0,90,0.00,,,0.00,VWS V14.01,2013-07-09 11:12:00,
2013-07-09 07:17:00,73.7,70.6,29.81,SW,215,0.0,0.0,90,0.00,,,0.00,VWS V14.01,2013-07-09 11:17:00,
2013-07-09 07:27:00,74.0,70.6,29.81,SW,215,0.0,0.0,89,0.00,,,0.00,VWS V14.01,2013-07-09 11:27:00,
2013-07-09 07:32:00,74.0,70.2,29.81,SW,215,0.0,0.0,88,0.00,,,0.00,VWS V14.01,2013-07-09 11:32:00,
2013-07-09 07:37:00,74.2,70.4,29.81,SW,215,0.0,0.0,88,0.00,,,0.00,VWS V14.01,2013-07-09 11:37:00,
2013-07-09 07:47:00,74.4,70.6,29.81,SW,215,0.0,0.0,88,0.00,,,0.00,VWS V14.01,2013-07-09 11:47:00,
2013-07-09 07:52:00,74.7,70.6,29.81,SW,215,0.0,0.0,87,0.00,,,0.00,VWS V14.01,2013-07-09 11:52:00,
2013-07-09 07:57:00,75.1,71.0,29.81,SW,215,0.0,0.0,87,0.00,,,0.00,VWS V14.01,2013-07-09 11:57:00,
2013-07-09 08:02:00,75.3,70.5,29.81,SW,215,0.0,0.0,85,0.00,,,0.00,VWS V14.01,2013-07-09 12:02:00,
2013-07-09 08:12:00,75.4,70.6,29.81,SW,216,0.0,0.0,85,0.00,,,0.00,VWS V14.01,2013-07-09 12:12:00,
2013-07-09 08:17:00,75.6,70.8,29.80,SW,224,0.0,0.0,85,0.00,,,0.00,VWS V14.01,2013-07-09 12:17:00,
2013-07-09 08:22:00,75.6,70.4,29.80,SW,222,0.0,0.0,84,0.00,,,0.00,VWS V14.01,2013-07-09 12:22:00,
2013-07-09 08:27:00,75.6,70.4,29.80,SW,222,0.0,0.0,84,0.00,,,0.00,VWS V14.01,2013-07-09 12:27:00,
2013-07-09 08:32:00,75.8,70.6,29.80,SSW,213,0.0,0.0,84,0.00,,,0.00,VWS V14.01,2013-07-09 12:32:00,
2013-07-09 08:42:00,76.3,70.8,29.80,SSW,212,0.0,0.0,83,0.00,,,0.00,VWS V14.01,2013-07-09 12:42:00,
2013-07-09 08:47:00,76.5,70.6,29.81,SW,229,0.0,0.0,82,0.00,,,0.00,VWS V14.01,2013-07-09 12:47:00,
2013-07-09 08:52:00,76.5,70.6,29.81,SSW,213,0.0,0.0,82,0.00,,,0.00,VWS V14.01,2013-07-09 12:52:00,
2013-07-09 09:02:00,76.5,70.6,29.81,SW,216,0.0,0.0,82,0.00,,,0.00,VWS V14.01,2013-07-09 13:02:00,
2013-07-09 09:07:00,76.8,70.9,29.81,SW,217,0.0,0.0,82,0.00,,,0.00,VWS V14.01,2013-07-09 13:07:00,
2013-07-09 09:12:00,77.4,71.1,29.81,SW,217,0.0,0.0,81,0.00,,,0.00,VWS V14.01,2013-07-09 13:12:00,
2013-07-09 09:17:00,77.6,70.9,29.81,SW,219,0.0,0.0,80,0.00,,,0.00,VWS V14.01,2013-07-09 13:17:00,
2013-07-09 09:22:00,77.7,71.0,29.81,SSW,203,0.0,0.0,80,0.00,,,0.00,VWS V14.01,2013-07-09 13:22:00,
2013-07-09 09:27:00,78.1,71.1,29.81,SSW,208,0.0,0.0,79,0.00,,,0.00,VWS V14.01,2013-07-09 13:27:00,
2013-07-09 09:37:00,78.5,71.4,29.81,SW,223,0.0,0.0,79,0.00,,,0.00,VWS V14.01,2013-07-09 13:37:00,
2013-07-09 09:42:00,78.5,71.1,29.81,SW,226,0.0,0.0,78,0.00,,,0.00,VWS V14.01,2013-07-09 13:42:00,
2013-07-09 09:52:00,79.2,71.4,29.81,SW,232,0.0,0.0,77,0.00,,,0.00,VWS V14.01,2013-07-09 13:52:00,
2013-07-09 10:02:00,80.1,71.5,29.81,SW,227,0.0,0.0,75,0.00,,,0.00,VWS V14.01,2013-07-09 14:02:00,
2013-07-09 10:07:00,80.1,71.5,29.81,SW,223,0.0,0.0,75,0.00,,,0.00,VWS V14.01,2013-07-09 14:07:00,
2013-07-09 10:17:00,80.1,71.9,29.80,SSW,212,0.0,0.0,76,0.00,,,0.00,VWS V14.01,2013-07-09 14:17:00,
2013-07-09 10:27:00,80.3,72.1,29.80,SW,217,0.0,0.0,76,0.00,,,0.00,VWS V14.01,2013-07-09 14:27:00,
2013-07-09 10:32:00,80.7,72.0,29.80,SW,222,0.0,0.0,75,0.00,,,0.00,VWS V14.01,2013-07-09 14:32:00,
2013-07-09 10:42:00,81.1,72.0,29.80,WSW,239,0.0,0.0,74,0.00,,,0.00,VWS V14.01,2013-07-09 14:42:00,
2013-07-09 10:47:00,81.1,72.0,29.80,SSW,213,0.0,0.0,74,0.00,,,0.00,VWS V14.01,2013-07-09 14:47:00,
2013-07-09 10:52:00,80.9,71.8,29.80,SW,227,0.0,0.0,74,0.00,,,0.00,VWS V14.01,2013-07-09 14:52:00,
2013-07-09 10:57:00,80.7,72.0,29.80,SSW,208,0.0,0.0,75,0.00,,,0.00,VWS V14.01,2013-07-09 14:57:00,
2013-07-09 11:02:00,80.9,71.8,29.80,SSW,213,0.0,0.0,74,0.00,,,0.00,VWS V14.01,2013-07-09 15:02:00,
2013-07-09 11:12:00,81.1,72.4,29.80,SSW,203,0.0,0.0,75,0.00,,,0.00,VWS V14.01,2013-07-09 15:12:00,
2013-07-09 11:17:00,81.6,72.9,29.80,SW,219,0.0,0.0,75,0.00,,,0.00,VWS V14.01,2013-07-09 15:17:00,
2013-07-09 11:22:00,82.0,72.1,29.80,WSW,237,0.0,0.0,72,0.00,,,0.00,VWS V14.01,2013-07-09 15:22:00,
2013-07-09 11:27:00,82.2,71.9,29.80,SSW,213,0.0,0.0,71,0.00,,,0.00,VWS V14.01,2013-07-09 15:27:00,
2013-07-09 11:32:00,82.4,72.1,29.80,WSW,239,0.0,0.0,71,0.00,,,0.00,VWS V14.01,2013-07-09 15:32:00,
2013-07-09 11:37:00,82.4,71.6,29.80,SW,219,0.0,0.0,70,0.00,,,0.00,VWS V14.01,2013-07-09 15:37:00,
2013-07-09 11:47:00,81.8,71.9,29.80,WSW,241,0.0,0.0,72,0.00,,,0.00,VWS V14.01,2013-07-09 15:47:00,
2013-07-09 11:52:00,81.6,72.1,29.80,SSW,202,0.0,0.0,73,0.00,,,0.00,VWS V14.01,2013-07-09 15:52:00,
2013-07-09 12:02:00,81.8,71.1,29.80,SSW,199,0.0,0.0,70,0.00,,,0.00,VWS V14.01,2013-07-09 16:02:00,
2013-07-09 12:12:00,81.4,70.7,29.80,SW,219,0.0,0.0,70,0.00,,,0.00,VWS V14.01,2013-07-09 16:12:00,
2013-07-09 12:17:00,81.8,71.5,29.80,SW,226,0.0,0.0,71,0.00,,,0.00,VWS V14.01,2013-07-09 16:17:00,
2013-07-09 12:22:00,82.0,71.3,29.80,SW,227,0.0,0.0,70,0.00,,,0.00,VWS V14.01,2013-07-09 16:22:00,
2013-07-09 12:32:00,83.4,72.2,29.79,SW,226,0.0,0.0,69,0.00,,,0.00,VWS V14.01,2013-07-09 16:32:00,
2013-07-09 12:37:00,83.2,71.6,29.79,SW,223,0.0,0.0,68,0.00,,,0.00,VWS V14.01,2013-07-09 16:37:00,
2013-07-09 12:42:00,82.4,71.6,29.79,SW,220,0.0,0.0,70,0.00,,,0.00,VWS V14.01,2013-07-09 16:42:00,
2013-07-09 12:47:00,81.8,71.9,29.80,SSW,212,0.0,0.0,72,0.00,,,0.00,VWS V14.01,2013-07-09 16:47:00,
2013-07-09 12:52:00,82.2,72.3,29.80,SW,226,0.0,0.0,72,0.00,,,0.00,VWS V14.01,2013-07-09 16:52:00,
2013-07-09 12:57:00,82.4,71.6,29.80,SW,232,0.0,0.0,70,0.00,,,0.00,VWS V14.01,2013-07-09 16:57:00,
2013-07-09 13:02:00,82.6,72.7,29.80,SSW,208,0.0,0.0,72,0.00,,,0.00,VWS V14.01,2013-07-09 17:02:00,
2013-07-09 13:12:00,82.0,72.1,29.80,SW,227,0.0,0.0,72,0.00,,,0.00,VWS V14.01,2013-07-09 17:12:00,
2013-07-09 13:17:00,81.8,72.3,29.80,SSW,200,0.0,0.0,73,0.00,,,0.00,VWS V14.01,2013-07-09 17:17:00,
2013-07-09 13:22:00,81.6,72.5,29.80,SSW,206,0.0,0.0,74,0.00,,BKN021,0.00,VWS V14.01,2013-07-09 17:22:00,
2013-07-09 13:27:00,81.6,72.5,29.80,SSW,212,0.0,0.0,74,0.00,,BKN021,0.00,VWS V14.01,2013-07-09 17:27:00,
2013-07-09 13:32:00,81.6,72.1,29.79,SSW,205,0.0,0.0,73,0.00,,BKN021,0.00,VWS V14.01,2013-07-09 17:32:00,
2013-07-09 13:37:00,81.8,72.7,29.79,SSW,210,0.0,0.0,74,0.00,,BKN021,0.00,VWS V14.01,2013-07-09 17:37:00,
2013-07-09 13:42:00,82.4,72.9,29.79,SSW,213,0.0,0.0,73,0.00,,BKN021,0.00,VWS V14.01,2013-07-09 17:42:00,
2013-07-09 13:52:00,82.4,72.5,29.78,SW,229,0.0,0.0,72,0.00,,BKN021,0.00,VWS V14.01,2013-07-09 17:52:00,
2013-07-09 13:57:00,82.4,72.1,29.78,SSW,198,0.0,0.0,71,0.00,,BKN021,0.00,VWS V14.01,2013-07-09 17:57:00,
2013-07-09 14:02:00,82.6,71.4,29.78,SW,230,0.0,0.0,69,0.00,,BKN021,0.00,VWS V14.01,2013-07-09 18:02:00,
2013-07-09 14:12:00,83.6,71.5,29.78,WSW,243,0.0,0.0,67,0.00,,BKN021,0.00,VWS V14.01,2013-07-09 18:12:00,
2013-07-09 14:17:00,83.2,71.1,29.77,SW,216,0.0,0.0,67,0.00,,BKN021,0.00,VWS V14.01,2013-07-09 18:17:00,
2013-07-09 14:22:00,83.2,72.0,29.77,WSW,253,0.0,0.0,69,0.00,,BKN021,0.00,VWS V14.01,2013-07-09 18:22:00,
2013-07-09 14:27:00,83.6,72.4,29.77,SSW,198,0.0,0.0,69,0.00,,BKN021,0.00,VWS V14.01,2013-07-09 18:27:00,
2013-07-09 14:32:00,83.4,71.7,29.77,SSW,209,0.0,0.0,68,0.00,,BKN021,0.00,VWS V14.01,2013-07-09 18:32:00,
2013-07-09 14:37:00,83.4,71.7,29.77,SW,230,0.0,0.0,68,0.00,,BKN021,0.00,VWS V14.01,2013-07-09 18:37:00,
2013-07-09 14:42:00,83.4,71.7,29.77,SW,223,0.0,0.0,68,0.00,,BKN021,0.00,VWS V14.01,2013-07-09 18:42:00,
2013-07-09 14:47:00,83.2,71.1,29.78,SW,216,0.0,0.0,67,0.00,,BKN021,0.00,VWS V14.01,2013-07-09 18:47:00,
2013-07-09 14:52:00,83.6,70.6,29.78,West,267,0.0,0.0,65,0.00,,BKN021,0.00,VWS V14.01,2013-07-09 18:52:00,
2013-07-09 14:57:00,83.8,71.7,29.78,West,275,0.0,0.0,67,0.00,,BKN021,0.00,VWS V14.01,2013-07-09 18:57:00,
2013-07-09 15:02:00,84.0,71.9,29.77,SW,227,0.0,0.0,67,0.00,,BKN021,0.00,VWS V14.01,2013-07-09 19:02:00,
2013-07-09 15:12:00,84.3,72.2,29.77,WSW,237,0.0,0.0,67,0.00,,BKN021,0.00,VWS V14.01,2013-07-09 19:12:00,
2013-07-09 15:17:00,84.1,71.5,29.76,West,267,0.0,0.0,66,0.00,,BKN021,0.00,VWS V14.01,2013-07-09 19:17:00,
2013-07-09 15:22:00,84.0,71.9,29.76,SW,234,0.0,0.0,67,0.00,,,0.00,VWS V14.01,2013-07-09 19:22:00,
2013-07-09 15:27:00,83.8,71.7,29.76,SW,223,0.0,0.0,67,0.00,,,0.00,VWS V14.01,2013-07-09 19:27:00,
2013-07-09 15:32:00,84.0,72.3,29.76,SW,236,0.0,0.0,68,0.00,,,0.00,VWS V14.01,2013-07-09 19:32:00,
2013-07-09 15:37:00,83.8,72.6,29.76,WSW,243,0.0,0.0,69,0.00,,,0.00,VWS V14.01,2013-07-09 19:37:00,
2013-07-09 15:42:00,83.4,72.2,29.76,NW,313,0.0,0.0,69,0.00,,,0.00,VWS V14.01,2013-07-09 19:42:00,
2013-07-09 15:47:00,82.8,71.6,29.77,NW,312,0.0,0.0,69,0.00,,,0.00,VWS V14.01,2013-07-09 19:47:00,
2013-07-09 15:57:00,82.4,72.1,29.77,West,280,0.0,0.0,71,0.00,,,0.00,VWS V14.01,2013-07-09 19:57:00,
2013-07-09 16:02:00,82.4,72.1,29.77,West,275,0.0,0.0,71,0.00,,,0.00,VWS V14.01,2013-07-09 20:02:00,
2013-07-09 16:07:00,82.2,71.9,29.77,West,267,0.0,0.0,71,0.00,,,0.00,VWS V14.01,2013-07-09 20:07:00,
2013-07-09 16:12:00,82.6,72.2,29.77,WSW,243,0.0,0.0,71,0.00,,,0.00,VWS V14.01,2013-07-09 20:12:00,
2013-07-09 16:22:00,82.6,72.2,29.77,WSW,248,0.0,0.0,71,0.00,,-RA,0.00,VWS V14.01,2013-07-09 20:22:00,
2013-07-09 16:32:00,82.8,72.9,29.77,West,265,0.0,0.0,72,0.00,,-RA,0.00,VWS V14.01,2013-07-09 20:32:00,
2013-07-09 16:42:00,82.6,72.7,29.77,West,270,0.0,0.0,72,0.00,,-RA,0.00,VWS V14.01,2013-07-09 20:42:00,
2013-07-09 16:52:00,83.0,73.1,29.76,SW,223,0.0,0.0,72,0.00,,-RA,0.00,VWS V14.01,2013-07-09 20:52:00,
2013-07-09 16:57:00,83.0,73.1,29.76,WSW,257,0.0,0.0,72,0.00,,-RA,0.00,VWS V14.01,2013-07-09 20:57:00,
2013-07-09 17:02:00,83.0,73.1,29.75,West,268,0.0,0.0,72,0.00,,-RA,0.00,VWS V14.01,2013-07-09 21:02:00,
2013-07-09 17:07:00,83.4,73.4,29.75,SW,222,0.0,0.0,72,0.00,,-RA,0.00,VWS V14.01,2013-07-09 21:07:00,
2013-07-09 17:12:00,84.1,73.7,29.75,SSW,212,0.0,0.0,71,0.00,,-RA,0.00,VWS V14.01,2013-07-09 21:12:00,
2013-07-09 17:17:00,84.7,73.4,29.75,SW,236,0.0,0.0,69,0.00,,-RA,0.00,VWS V14.01,2013-07-09 21:17:00,
2013-07-09 17:22:00,84.7,73.4,29.75,SW,219,0.0,0.0,69,0.00,,-RA,0.00,VWS V14.01,2013-07-09 21:22:00,
2013-07-09 17:32:00,84.5,72.3,29.74,SW,223,0.0,0.0,67,0.00,,-RA,0.00,VWS V14.01,2013-07-09 21:32:00,
2013-07-09 17:37:00,84.3,71.7,29.74,SW,219,0.0,0.0,66,0.00,,-RA,0.00,VWS V14.01,2013-07-09 21:37:00,
2013-07-09 17:42:00,84.1,72.0,29.74,SW,227,0.0,0.0,67,0.00,,-RA,0.00,VWS V14.01,2013-07-09 21:42:00,
2013-07-09 17:47:00,84.7,73.4,29.74,SSW,195,0.0,0.0,69,0.00,,-RA,0.00,VWS V14.01,2013-07-09 21:47:00,
2013-07-09 17:52:00,84.9,72.7,29.74,South,178,0.0,0.0,67,0.00,,-RA,0.00,VWS V14.01,2013-07-09 21:52:00,
2013-07-09 17:57:00,84.7,73.0,29.74,SW,220,0.0,0.0,68,0.00,,-RA,0.00,VWS V14.01,2013-07-09 21:57:00,
2013-07-09 18:02:00,84.7,73.4,29.73,SSW,199,0.0,0.0,69,0.00,,-RA,0.00,VWS V14.01,2013-07-09 22:02:00,
2013-07-09 18:12:00,84.9,72.7,29.73,SSW,205,0.0,0.0,67,0.00,,-RA,0.00,VWS V14.01,2013-07-09 22:12:00,
2013-07-09 18:17:00,84.3,73.0,29.73,South,186,0.0,0.0,69,0.00,,-RA,0.00,VWS V14.01,2013-07-09 22:17:00,
2013-07-09 18:22:00,83.8,72.6,29.73,SSW,209,0.0,0.0,69,0.00,,BKN120,0.00,VWS V14.01,2013-07-09 22:22:00,
2013-07-09 18:27:00,83.4,72.6,29.73,SSW,206,0.0,0.0,70,0.00,,BKN120,0.00,VWS V14.01,2013-07-09 22:27:00,
2013-07-09 18:37:00,83.2,73.2,29.73,South,186,0.0,0.0,72,0.00,,BKN120,0.00,VWS V14.01,2013-07-09 22:37:00,
2013-07-09 18:47:00,82.8,73.3,29.72,South,188,0.0,0.0,73,0.00,,BKN120,0.00,VWS V14.01,2013-07-09 22:47:00,
2013-07-09 18:57:00,82.6,73.9,29.72,South,174,0.0,0.0,75,0.00,,BKN120,0.00,VWS V14.01,2013-07-09 22:57:00,
2013-07-09 19:02:00,82.6,73.9,29.72,South,169,0.0,0.0,75,0.00,,BKN120,0.00,VWS V14.01,2013-07-09 23:02:00,
2013-07-09 19:12:00,82.4,74.1,29.72,South,178,0.0,0.0,76,0.00,,BKN120,0.00,VWS V14.01,2013-07-09 23:12:00,
2013-07-09 19:17:00,82.4,74.1,29.72,South,178,0.0,0.0,76,0.00,,BKN120,0.00,VWS V14.01,2013-07-09 23:17:00,
2013-07-09 19:22:00,82.4,74.1,29.72,South,178,0.0,0.0,76,0.00,,SCT110,0.00,VWS V14.01,2013-07-09 23:22:00,
2013-07-09 19:32:00,82.4,74.1,29.71,South,178,0.0,0.0,76,0.00,,SCT110,0.00,VWS V14.01,2013-07-09 23:32:00,
2013-07-09 19:37:00,82.4,74.1,29.71,South,179,0.0,0.0,76,0.00,,SCT110,0.00,VWS V14.01,2013-07-09 23:37:00,
2013-07-09 19:42:00,82.4,74.1,29.71,South,188,0.0,0.0,76,0.00,,SCT110,0.00,VWS V14.01,2013-07-09 23:42:00,
2013-07-09 19:47:00,82.4,74.5,29.71,South,188,0.0,0.0,77,0.00,,SCT110,0.00,VWS V14.01,2013-07-09 23:47:00,
2013-07-09 19:52:00,82.4,74.5,29.71,South,169,0.0,0.0,77,0.00,,SCT110,0.00,VWS V14.01,2013-07-09 23:52:00,
2013-07-09 19:57:00,82.4,74.5,29.71,South,171,0.0,0.0,77,0.00,,SCT110,0.00,VWS V14.01,2013-07-09 23:57:00,
2013-07-09 20:07:00,82.2,74.7,29.70,South,175,0.0,0.0,78,0.00,,SCT110,0.00,VWS V14.01,2013-07-10 00:07:00,
2013-07-09 20:12:00,82.2,74.7,29.70,SSE,168,0.0,0.0,78,0.00,,SCT110,0.00,VWS V14.01,2013-07-10 00:12:00,
2013-07-09 20:17:00,82.0,74.5,29.70,SSE,165,0.0,0.0,78,0.00,,SCT110,0.00,VWS V14.01,2013-07-10 00:17:00,
2013-07-09 20:22:00,82.0,74.5,29.70,SSE,168,0.0,0.0,78,0.00,,SCT110,0.00,VWS V14.01,2013-07-10 00:22:00,
2013-07-09 20:32:00,82.0,74.5,29.71,South,179,0.0,0.0,78,0.00,,SCT110,0.00,VWS V14.01,2013-07-10 00:32:00,
2013-07-09 20:37:00,81.8,74.3,29.71,South,182,0.0,0.0,78,0.00,,SCT110,0.00,VWS V14.01,2013-07-10 00:37:00,
2013-07-09 20:42:00,81.8,73.9,29.71,South,181,0.0,0.0,77,0.00,,SCT110,0.00,VWS V14.01,2013-07-10 00:42:00,
2013-07-09 20:47:00,81.8,73.9,29.71,SSW,193,0.0,0.0,77,0.00,,SCT110,0.00,VWS V14.01,2013-07-10 00:47:00,
2013-07-09 20:57:00,82.0,74.1,29.71,SSW,193,0.0,0.0,77,0.00,,SCT110,0.00,VWS V14.01,2013-07-10 00:57:00,
2013-07-09 21:02:00,81.8,73.9,29.71,SSW,192,0.0,0.0,77,0.00,,SCT110,0.00,VWS V14.01,2013-07-10 01:02:00,
2013-07-09 21:07:00,81.8,73.9,29.71,South,191,0.0,0.0,77,0.00,,SCT110,0.00,VWS V14.01,2013-07-10 01:07:00,
2013-07-09 21:17:00,81.4,73.5,29.70,South,191,0.0,0.0,77,0.00,,SCT110,0.00,VWS V14.01,2013-07-10 01:17:00,
2013-07-09 21:22:00,81.4,73.5,29.70,South,191,0.0,0.0,77,0.00,,BKN100,0.00,VWS V14.01,2013-07-10 01:22:00,
2013-07-09 21:27:00,81.2,73.3,29.70,SSW,195,0.0,0.0,77,0.00,,BKN100,0.00,VWS V14.01,2013-07-10 01:27:00,
2013-07-09 21:32:00,81.2,73.3,29.70,SSW,199,0.0,0.0,77,0.00,,BKN100,0.00,VWS V14.01,2013-07-10 01:32:00,
2013-07-09 21:37:00,81.1,72.8,29.70,SSW,200,0.0,0.0,76,0.00,,BKN100,0.00,VWS V14.01,2013-07-10 01:37:00,
2013-07-09 21:42:00,81.1,72.8,29.70,SSW,208,0.0,0.0,76,0.00,,BKN100,0.00,VWS V14.01,2013-07-10 01:42:00,
2013-07-09 21:52:00,80.9,72.6,29.71,South,185,0.0,0.0,76,0.00,,BKN100,0.00,VWS V14.01,2013-07-10 01:52:00,
2013-07-09 21:57:00,80.7,72.4,29.71,SSW,192,0.0,0.0,76,0.00,,BKN100,0.00,VWS V14.01,2013-07-10 01:57:00,
2013-07-09 22:02:00,80.5,72.2,29.72,SSW,192,0.0,0.0,76,0.00,,BKN100,0.00,VWS V14.01,2013-07-10 02:02:00,
2013-07-09 22:12:00,80.3,72.4,29.72,SSW,192,0.0,0.0,77,0.00,,BKN100,0.00,VWS V14.01,2013-07-10 02:12:00,
2013-07-09 22:22:00,79.9,72.1,29.72,South,189,0.0,0.0,77,0.00,,BKN100,0.00,VWS V14.01,2013-07-10 02:22:00,
2013-07-09 22:27:00,80.1,72.2,29.72,South,191,0.0,0.0,77,0.00,,BKN100,0.00,VWS V14.01,2013-07-10 02:27:00,
2013-07-09 22:32:00,80.1,72.2,29.72,SSW,199,0.0,0.0,77,0.00,,BKN100,0.00,VWS V14.01,2013-07-10 02:32:00,
2013-07-09 22:37:00,79.9,72.1,29.72,SSW,199,0.0,0.0,77,0.00,,BKN100,0.00,VWS V14.01,2013-07-10 02:37:00,
2013-07-09 22:42:00,79.8,72.3,29.72,SSW,199,0.0,0.0,78,0.00,,BKN100,0.00,VWS V14.01,2013-07-10 02:42:00,
2013-07-09 22:47:00,79.6,72.1,29.72,SSW,199,0.0,0.0,78,0.00,,BKN100,0.00,VWS V14.01,2013-07-10 02:47:00,
2013-07-09 22:52:00,79.6,72.1,29.72,SSW,199,0.0,0.0,78,0.00,,BKN100,0.00,VWS V14.01,2013-07-10 02:52:00,
2013-07-09 22:57:00,79.4,72.3,29.72,SSW,199,0.0,0.0,79,0.00,,BKN100,0.00,VWS V14.01,2013-07-10 02:57:00,
2013-07-09 23:02:00,79.2,72.1,29.72,SSW,199,0.0,0.0,79,0.00,,BKN100,0.00,VWS V14.01,2013-07-10 03:02:00,
2013-07-09 23:12:00,79.0,71.9,29.72,SSW,199,0.0,0.0,79,0.00,,BKN100,0.00,VWS V14.01,2013-07-10 03:12:00,
2013-07-09 23:22:00,78.8,72.1,29.72,SSW,199,0.0,0.0,80,0.00,,BKN090,0.00,VWS V14.01,2013-07-10 03:22:00,
2013-07-09 23:27:00,78.6,71.9,29.72,SSW,199,0.0,0.0,80,0.00,,BKN090,0.00,VWS V14.01,2013-07-10 03:27:00,
2013-07-09 23:32:00,78.5,72.2,29.72,SSW,199,0.0,0.0,81,0.00,,BKN090,0.00,VWS V14.01,2013-07-10 03:32:00,
2013-07-09 23:42:00,78.3,72.4,29.72,SSW,199,0.0,0.0,82,0.00,,BKN090,0.00,VWS V14.01,2013-07-10 03:42:00,
2013-07-09 23:47:00,78.1,72.5,29.72,SSW,199,0.0,0.0,83,0.00,,BKN090,0.00,VWS V14.01,2013-07-10 03:47:00,
2013-07-09 23:57:00,78.1,72.5,29.72,SSW,199,0.0,0.0,83,0.00,,BKN090,0.00,VWS V14.01,2013-07-10 03:57:00,